Weather History for FAGG - February, 2013

Change the Weather History Date:

Wednesday, February 20, 2013

  Actual Average Record
Temperature  
Mean Temperature 64 °F -  
Max Temperature 70 °F 73 °F 91 °F (1998)
Min Temperature 55 °F 58 °F 52 °F (2015)
Degree Days  
Heating Degree Days 2    
Growing Degree Days 14 (Base 50)    
Moisture  
Dew Point 49 °F    
Average Humidity 58    
Maximum Humidity 82    
Minimum Humidity 39    
Precipitation  
Precipitation 0.00 in - - ()
Sea Level Pressure  
Sea Level Pressure 30.09 in    
Wind  
Wind Speed 13 mph ()    
Max Wind Speed 21 mph    
Max Gust Speed 33 mph    
Visibility 7.8 miles    
Events      
Averages and records for this station are not official NWS values.
T = Trace of Precipitation, MM = Missing Value Source: Averaged Metar Reports

Daily Weather History Graph

Daily Weather History Graph

Search for Another Location

Airport or City:

Trip Planner

Search our weather history database for the weather conditions in past years. The results will help you decide how hot, cold, wet, or windy it might be!

Date:

Astronomy

Feb. 20, 2013 Rise Set
Actual Time 6:10 AM SAST 7:17 PM SAST
Civil Twilight 5:44 AM SAST 7:43 PM SAST
Nautical Twilight 5:13 AM SAST 8:14 PM SAST
Astronomical Twilight 4:41 AM SAST 8:45 PM SAST
Moon 3:31 PM SAST (2/20) 1:06 AM SAST (2/20)
Length of Visible Light 13h 58m
Length of Day
13h 07m
Waxing Gibbous, 73% of the Moon is Illuminated
Feb 20
Waxing Gibbous
Feb 25
Full
Mar 4
Last Quarter
Mar 11
New
Mar 19
First Quarter

Hourly Weather History & Observations

Time (SAST) Temp. Dew Point Humidity Pressure Visibility Wind Dir Wind Speed Gust Speed Precip Events Conditions
12:00 AM 64.4 °F 53.6 °F 68% 29.95 in 6.2 mi West 19.6 mph - N/A   Overcast
1:00 AM 62.6 °F 51.8 °F 68% 29.98 in 6.2 mi West 18.4 mph - N/A   Overcast
2:00 AM 62 °F 51 °F 58% 29.96 in 12 mi West 20.7 mph - -  
3:00 AM 62.6 °F 50.0 °F 63% 29.98 in 6.2 mi WNW 19.6 mph - N/A   Mostly Cloudy
4:00 AM 60.8 °F 48.2 °F 63% 30.01 in 6.2 mi WNW 17.3 mph - N/A   Mostly Cloudy
5:00 AM 59 °F 46 °F 52% 30.02 in 12 mi WNW 15.0 mph - -   Scattered Clouds
5:00 AM 59.0 °F 46.4 °F 63% 30.01 in - WNW 15.0 mph - N/A   Clear
6:00 AM 60.8 °F 46.4 °F 59% 30.04 in 6.2 mi West 20.7 mph 33.4 mph N/A   Scattered Clouds
7:00 AM 60.8 °F 46.4 °F 59% 30.06 in 6.2 mi West 19.6 mph - N/A   Scattered Clouds
8:00 AM 62 °F 48 °F 49% 30.09 in 12 mi West 18.4 mph - -   Scattered Clouds
8:00 AM 62.6 °F 48.2 °F 59% 30.06 in 6.2 mi West 18.4 mph - N/A   Partly Cloudy
9:00 AM 62.6 °F 50.0 °F 63% 30.09 in 6.2 mi West 16.1 mph - N/A   Mostly Cloudy
10:00 AM 66.2 °F 50.0 °F 56% 30.12 in 6.2 mi SW 16.1 mph - N/A   Partly Cloudy
11:00 AM 68 °F 49 °F 39% 30.13 in 12 mi SW 16.1 mph - -   Partly Cloudy
11:00 AM 68.0 °F 48.2 °F 49% 30.12 in 6.2 mi SW 16.1 mph - N/A   Scattered Clouds
12:00 PM 68.0 °F 48.2 °F 49% 30.12 in 6.2 mi SSW 16.1 mph - N/A   Scattered Clouds
1:00 PM 69.8 °F 48.2 °F 46% 30.12 in 6.2 mi South 12.7 mph - N/A   Scattered Clouds
2:00 PM 70 °F 51 °F 40% 30.13 in 12 mi South 10.4 mph - -   Mostly Cloudy
2:00 PM 69.8 °F 51.8 °F 53% 30.12 in 6.2 mi South 10.4 mph - N/A   Mostly Cloudy
3:00 PM 68.0 °F 50.0 °F 52% 30.12 in 6.2 mi South 8.1 mph - N/A   Scattered Clouds
4:00 PM 66.2 °F 50.0 °F 56% 30.12 in 6.2 mi SSE 9.2 mph - N/A   Mostly Cloudy
5:00 PM 65 °F 51 °F 49% 30.14 in 12 mi South 4.6 mph - -   Mostly Cloudy
5:00 PM 66.2 °F 50.0 °F 56% 30.12 in 6.2 mi South 4.6 mph - N/A   Mostly Cloudy
6:00 PM 66.2 °F 50.0 °F 56% 30.12 in 6.2 mi SE 6.9 mph - N/A   Scattered Clouds
7:00 PM 62.6 °F 50.0 °F 63% 30.15 in 6.2 mi SE 5.8 mph - N/A   Scattered Clouds
8:00 PM 62 °F 51 °F 57% 30.17 in 12 mi ESE 3.5 mph - -   Partly Cloudy
8:00 PM 62.6 °F 50.0 °F 63% 30.15 in 6.2 mi East 3.5 mph - N/A   Scattered Clouds
9:00 PM 59.0 °F 50.0 °F 72% 30.15 in - NE 4.6 mph - N/A   Clear
10:00 PM 57.2 °F 50.0 °F 77% 30.15 in - North 3.5 mph - N/A   Clear
11:00 PM 55.4 °F 50.0 °F 82% 30.15 in - NNW 3.5 mph - N/A   Clear